WA8SIE Weather Reports


time (UTC)temp
C
wind
direction
speed
KPH
gust
KPH
rain 1hr
cm
rain 24hr
cm
rain mn
cm
humidity
%
barometer
mb
20260901211511 32 200 0.0 8.0 0.00 0.00 0.00 55 1012.4
20260901211011 32 200 0.0 9.7 0.00 0.00 0.00 56 1012.4
20260901210512 32 179 0.0 9.7 0.00 0.00 0.00 54 1012.4
20260901210013 32 190 0.0 6.4 0.00 0.00 0.00 56 1012.4
20260901205511 32 201 0.0 6.4 0.00 0.00 0.00 55 1012.3
20260901205011 32 201 0.0 6.4 0.00 0.00 0.00 54 1012.3
20260901204511 32 203 0.0 8.0 0.00 0.00 0.00 56 1012.3
20260901204011 32 195 0.0 8.0 0.00 0.00 0.00 55 1012.4
20260901203511 32 195 8.0 6.4 0.00 0.00 0.00 55 1012.4
20260901203011 32 191 0.0 8.0 0.00 0.00 0.00 56 1012.4
20260901202513 32 191 0.0 8.0 0.00 0.00 0.00 56 1012.7
20260901201511 32 190 0.0 6.4 0.00 0.00 0.00 56 1012.7
20260901201011 32 191 4.8 4.8 0.00 0.00 0.00 58 1012.9
20260901200511 31 191 0.0 4.8 0.00 0.00 0.00 60 1012.9
20260901195511 31 310 0.0 0.0 0.00 0.00 0.00 66 1012.9
20260901195011 31 309 0.0 0.0 0.00 0.00 0.00 62 1012.9
20260901194011 32 309 0.0 0.0 0.00 0.00 0.00 61 1012.9
20260901193511 32 309 0.0 0.0 0.00 0.00 0.00 59 1012.9
20260901193011 32 309 0.0 0.0 0.00 0.00 0.00 55 1012.9
20260901192511 32 309 0.0 6.4 0.00 0.00 0.00 56 1013.1
20260901192011 32 306 0.0 6.4 0.00 0.00 0.00 55 1013.1
20260901191511 32 296 4.8 6.4 0.00 0.00 0.00 53 1013.1
20260901191011 32 298 0.0 6.4 0.00 0.00 0.00 54 1013.1
20260901190510 32 299 0.0 0.0 0.00 0.00 0.00 55 1013.1
20260901190014 32 297 0.0 4.8 0.00 0.00 0.00 55 1013.1
20260901185511 33 2 0.0 11.3 0.00 0.00 0.00 52 1012.9
20260901184511 33 315 9.7 14.5 0.00 0.00 0.00 52 1012.9
20260901184011 33 326 0.0 9.7 0.00 0.00 0.00 54 1013.2
20260901183512 33 327 0.0 9.7 0.00 0.00 0.00 51 1013.2
20260901182012 33 4.8 8.0 0.00 0.00 0.00 51 1013.4
20260901181011 33 356 6.4 8.0 0.00 0.00 0.00 54 1013.8
20260901180512 33 309 0.0 6.4 0.00 0.00 0.00 51 1013.8
20260901180012 33 235 0.0 1.6 0.00 0.00 0.00 55 1013.8
20260901175510 33 301 0.0 8.0 0.00 0.00 0.00 55 1013.9
20260901175011 33 51 0.0 17.7 0.00 0.00 0.00 56 1013.9
20260901174511 33 46 0.0 17.7 0.00 0.00 0.00 55 1013.9
20260901174010 32 178 6.4 9.7 0.00 0.00 0.00 53 1013.9
20260901173511 32 134 0.0 9.7 0.00 0.00 0.00 56 1013.9
20260901173011 33 195 0.0 8.0 0.00 0.00 0.00 56 1013.9
20260901172511 33 276 0.0 8.0 0.00 0.00 0.00 58 1014.1
20260901172011 32 288 0.0 8.0 0.00 0.00 0.00 59 1014.1
20260901171512 32 321 0.0 6.4 0.00 0.00 0.00 57 1014.1
20260901171010 32 195 0.0 6.4 0.00 0.00 0.00 58 1014.4
20260901170510 32 222 0.0 9.7 0.00 0.00 0.00 59 1014.4
20260901170011 32 181 0.0 9.7 0.00 0.00 0.00 59 1014.4
20260901165511 32 300 4.8 4.8 0.00 0.00 0.00 61 1014.3
20260901165010 32 247 0.0 11.3 0.00 0.00 0.00 59 1014.3
20260901164512 32 196 0.0 14.5 0.00 0.00 0.00 61 1014.3
20260901164012 32 296 0.0 14.5 0.00 0.00 0.00 59 1014.3
20260901163510 32 181 0.0 8.0 0.00 0.00 0.00 60 1014.3
20260901162511 31 274 0.0 6.4 0.00 0.00 0.00 62 1014.2
20260901162010 31 176 0.0 6.4 0.00 0.00 0.00 63 1014.2
20260901161012 31 186 3.2 8.0 0.00 0.00 0.00 63 1014.3
20260901160512 31 186 0.0 9.7 0.00 0.00 0.00 65 1014.3
20260901160010 31 206 0.0 9.7 0.00 0.00 0.00 65 1014.3
20260901155511 31 200 0.0 0.0 0.00 0.00 0.00 65 1014.4
20260901155010 31 200 0.0 1.6 0.00 0.00 0.00 65 1014.4
20260901154511 31 307 0.0 8.0 0.00 0.00 0.00 67 1014.4
20260901154012 30 41 0.0 8.0 0.00 0.00 0.00 66 1014.4
20260901153510 30 307 1.6 6.4 0.00 0.00 0.00 68 1014.4
20260901152010 30 268 0.0 4.8 0.00 0.00 0.00 69 1014.5
20260901151010 30 330 0.0 6.4 0.00 0.00 0.00 70 1014.5
20260901150010 30 260 4.8 4.8 0.00 0.00 0.00 72 1014.5
20260901145510 29 210 0.0 6.4 0.00 0.00 0.00 71 1014.5
20260901145012 29 224 0.0 6.4 0.00 0.00 0.00 71 1014.5
20260901144510 29 343 0.0 3.2 0.00 0.00 0.00 72 1014.5
20260901143510 28 332 0.0 0.0 0.00 0.00 0.00 74 1014.6
20260901143012 28 331 0.0 3.2 0.00 0.00 0.00 74 1014.6
20260901142510 28 332 0.0 4.8 0.00 0.00 0.00 75 1014.6
20260901142010 28 332 0.0 6.4 0.00 0.00 0.00 76 1014.6
20260901141011 27 197 0.0 0.0 0.00 0.00 0.00 77 1014.6
20260901140511 27 197 0.0 0.0 0.00 0.00 0.00 78 1014.6
20260901140011 27 198 0.0 0.0 0.00 0.00 0.00 78 1014.6
20260901135511 27 198 0.0 0.0 0.00 0.00 0.00 78 1014.7
20260901135011 27 197 0.0 0.0 0.00 0.00 0.00 79 1014.7
20260901134511 27 197 0.0 0.0 0.00 0.00 0.00 81 1014.7
20260901134013 27 197 0.0 0.0 0.00 0.00 0.00 82 1014.7
20260901133511 26 197 0.0 0.0 0.00 0.00 0.00 83 1014.7
20260901133011 26 198 0.0 0.0 0.00 0.00 0.00 84 1014.7
20260901132511 26 198 0.0 0.0 0.00 0.00 0.00 85 1014.9
20260901132011 26 198 0.0 0.0 0.00 0.00 0.00 88 1014.9
20260901130511 25 198 0.0 0.0 0.00 0.00 0.00 93 1014.9
20260901130011 24 198 0.0 0.0 0.00 0.00 0.00 95 1014.9
20260901125011 24 198 0.0 0.0 0.00 0.00 0.00 99 1015.0
20260901124511 23 198 0.0 0.0 0.00 0.00 0.00 100 1015.0
20260901123511 23 198 0.0 4.8 0.00 0.00 0.00 100 1015.1
20260901123011 23 198 0.0 4.8 0.00 0.00 0.00 100 1015.1
20260901122511 23 198 0.0 4.8 0.00 0.00 0.00 100 1015.1
20260901122011 22 198 3.2 4.8 0.00 0.00 0.00 100 1015.1
20260901121511 22 198 3.2 4.8 0.00 0.00 0.00 100 1015.1
20260901121011 22 198 0.0 0.0 0.00 0.00 0.00 100 1015.0
20260901120511 22 198 0.0 0.0 0.00 0.00 0.00 100 1015.0
20260901120011 22 198 0.0 0.0 0.00 0.00 0.00 100 1015.0
20260901115511 22 198 0.0 0.0 0.00 0.00 0.00 100 1014.7
20260901115011 22 198 0.0 0.0 0.00 0.00 0.00 100 1014.7
20260901114511 22 198 0.0 0.0 0.00 0.00 0.00 100 1014.7
20260901114012 22 198 0.0 0.0 0.00 0.00 0.00 100 1014.5
20260901113511 22 199 0.0 0.0 0.00 0.00 0.00 100 1014.5
20260901113011 22 198 0.0 0.0 0.00 0.00 0.00 100 1014.5
20260901112011 22 198 0.0 0.0 0.00 0.00 0.00 100 1014.5
20260901111511 22 198 0.0 0.0 0.00 0.00 0.00 100 1014.5
20260901111011 21 198 0.0 0.0 0.00 0.00 0.00 100 1014.3
20260901110512 21 198 0.0 0.0 0.00 0.00 0.00 100 1014.3
20260901105511 22 198 0.0 0.0 0.00 0.00 0.00 100 1014.1
20260901105011 22 198 0.0 0.0 0.00 0.00 0.00 100 1014.1
20260901104511 22 198 0.0 0.0 0.00 0.00 0.00 100 1014.1
20260901103511 22 198 0.0 0.0 0.00 0.00 0.00 100 1013.9
20260901103011 22 198 0.0 0.0 0.00 0.00 0.00 100 1013.9
20260901102511 22 198 0.0 0.0 0.00 0.00 0.00 100 1013.8
20260901102011 22 198 0.0 0.0 0.00 0.00 0.00 100 1013.8
20260901101511 22 199 0.0 0.0 0.00 0.00 0.00 100 1013.8
20260901101011 22 198 0.0 0.0 0.00 0.00 0.00 100 1013.6
20260901100012 22 198 0.0 0.0 0.00 0.00 0.00 100 1013.6
20260901095511 22 198 0.0 0.0 0.00 0.00 0.00 100 1013.5
20260901095011 22 198 0.0 0.0 0.00 0.00 0.00 100 1013.5
20260901094512 22 198 0.0 0.0 0.00 0.00 0.00 100 1013.5
20260901094012 22 198 0.0 0.0 0.00 0.00 0.00 100 1013.5
20260901093511 22 198 0.0 0.0 0.00 0.00 0.00 100 1013.5
20260901093011 22 198 0.0 0.0 0.00 0.00 0.00 100 1013.5
20260901092511 22 198 0.0 0.0 0.00 0.00 0.00 100 1013.5
20260901091012 22 198 0.0 0.0 0.00 0.00 0.00 100 1013.2
20260901090511 22 198 0.0 0.0 0.00 0.00 0.00 100 1013.2
20260901090010 22 198 0.0 0.0 0.00 0.00 0.00 100 1013.2
20260901085510 22 198 0.0 0.0 0.00 0.00 0.00 100 1013.3
20260901085011 22 198 0.0 0.0 0.00 0.00 0.00 100 1013.3
20260901084511 22 198 0.0 0.0 0.00 0.00 0.00 100 1013.3
20260901084011 22 198 0.0 0.0 0.00 0.00 0.00 100 1013.1
20260901083510 22 198 0.0 0.0 0.00 0.00 0.00 100 1013.1
20260901082011 22 198 0.0 0.0 0.00 0.00 0.00 100 1013.1
20260901081512 22 198 0.0 0.0 0.00 0.00 0.00 100 1013.1
20260901081010 22 198 0.0 0.0 0.00 0.00 0.00 100 1013.2
20260901080511 22 198 0.0 0.0 0.00 0.00 0.00 100 1013.2
20260901080010 22 198 0.0 0.0 0.00 0.00 0.00 100 1013.2
20260901075511 22 198 0.0 0.0 0.00 0.00 0.00 100 1013.1
20260901075011 22 198 0.0 0.0 0.00 0.00 0.00 100 1013.1
20260901074511 22 198 0.0 0.0 0.00 0.00 0.00 100 1013.1
20260901074012 22 198 0.0 0.0 0.00 0.00 0.00 100 1012.9
20260901073511 22 198 0.0 0.0 0.00 0.00 0.00 100 1012.9
20260901073010 23 198 0.0 0.0 0.00 0.00 0.00 100 1012.9
20260901072510 23 198 0.0 0.0 0.00 0.00 0.00 100 1013.0
20260901072011 23 198 0.0 0.0 0.00 0.00 0.00 100 1013.0
20260901071511 23 198 0.0 0.0 0.00 0.00 0.00 100 1013.0
20260901071010 23 198 0.0 0.0 0.00 0.00 0.00 100 1013.0
20260901070510 23 198 0.0 0.0 0.00 0.00 0.00 100 1013.0
20260901065511 23 198 0.0 0.0 0.00 0.00 0.00 100 1012.9
20260901065010 23 198 0.0 0.0 0.00 0.00 0.00 100 1012.9
20260901064510 23 199 0.0 0.0 0.00 0.00 0.00 100 1012.9
20260901064010 23 198 0.0 0.0 0.00 0.00 0.00 100 1012.9
20260901063511 23 198 0.0 0.0 0.00 0.00 0.00 100 1012.9
20260901063010 23 198 0.0 0.0 0.00 0.00 0.00 100 1012.9
20260901062510 23 198 0.0 0.0 0.00 0.00 0.00 100 1013.0
20260901062010 23 198 0.0 0.0 0.00 0.00 0.00 100 1013.0
20260901061511 23 198 0.0 0.0 0.00 0.00 0.00 100 1013.0
20260901061010 23 198 0.0 0.0 0.00 0.00 0.00 100 1013.0
20260901060510 23 198 0.0 0.0 0.00 0.00 0.00 100 1013.0
20260901060012 23 198 0.0 0.0 0.00 0.00 0.00 100 1013.0
20260901055510 23 198 0.0 0.0 0.00 0.00 0.00 100 1013.2
20260901055010 23 198 0.0 0.0 0.00 0.00 0.00 100 1013.2
20260901054510 23 198 0.0 0.0 0.00 0.00 0.00 100 1013.2
20260901054010 23 198 0.0 0.0 0.00 0.00 0.00 100 1013.4
20260901053510 23 198 0.0 0.0 0.00 0.00 0.00 100 1013.4
20260901053010 23 198 0.0 0.0 0.00 0.00 0.00 100 1013.4
20260901052510 23 198 0.0 0.0 0.00 0.00 0.00 100 1013.3
20260901052010 23 198 0.0 0.0 0.00 0.00 0.00 100 1013.3
20260901051510 24 198 0.0 0.0 0.00 0.00 0.00 100 1013.3
20260901051010 24 198 0.0 0.0 0.00 0.00 0.00 100 1013.3
20260901050511 24 198 0.0 0.0 0.00 0.00 0.00 100 1013.3
20260901050011 24 198 0.0 0.0 0.00 0.00 0.00 100 1013.3
20260901045511 24 198 0.0 0.0 0.00 0.00 0.00 100 1013.3
20260901045011 24 198 0.0 0.0 0.00 0.00 0.00 99 1013.3
20260901044511 24 198 0.0 0.0 0.00 0.00 0.00 99 1013.3
20260901044011 24 198 0.0 0.0 0.00 0.00 0.00 99 1013.5
20260901043511 24 198 0.0 0.0 0.00 0.00 0.00 99 1013.5
20260901042011 25 198 0.0 0.0 0.00 0.00 0.00 99 1013.6
20260901041511 25 198 0.0 0.0 0.00 0.00 0.00 98 1013.6
20260901041011 25 198 0.0 0.0 0.00 0.00 0.00 98 1013.9
20260901040511 25 198 0.0 0.0 0.00 0.00 0.00 98 1013.9
20260901040011 25 198 0.0 0.0 0.00 0.00 0.00 98 1013.9
20260901035511 25 198 0.0 0.0 0.00 0.00 0.00 97 1013.7
20260901035011 25 198 0.0 0.0 0.00 0.00 0.00 97 1013.7
20260901034011 25 198 0.0 0.0 0.00 0.00 0.00 97 1013.7
20260901033511 25 198 0.0 0.0 0.00 0.00 0.00 97 1013.7
20260901033011 25 198 0.0 0.0 0.00 0.00 0.00 97 1013.7
20260901032511 25 198 0.0 0.0 0.00 0.00 0.00 97 1013.7
20260901032011 25 198 0.0 0.0 0.00 0.00 0.00 97 1013.7
20260901031511 25 199 0.0 0.0 0.00 0.00 0.00 96 1013.7
20260901031011 25 198 0.0 0.0 0.00 0.00 0.00 96 1013.7
20260901025511 25 198 0.0 0.0 0.00 0.00 0.00 96 1013.9
20260901025011 25 199 0.0 3.2 0.00 0.00 0.00 96 1013.9
20260901024511 26 198 0.0 3.2 0.00 0.00 0.00 95 1013.9
20260901024013 26 198 0.0 0.0 0.00 0.00 0.00 95 1013.8
20260901023511 26 198 0.0 0.0 0.00 0.00 0.00 95 1013.8
20260901023011 26 198 0.0 0.0 0.00 0.00 0.00 95 1013.8
20260901022011 26 198 0.0 0.0 0.00 0.00 0.00 95 1013.7
20260901021011 26 198 0.0 0.0 0.00 0.00 0.00 94 1013.8
20260901020511 26 198 0.0 0.0 0.00 0.00 0.00 94 1013.8
20260901015011 26 198 0.0 0.0 0.00 0.00 0.00 93 1013.6
20260901014513 26 198 0.0 0.0 0.00 0.00 0.00 93 1013.6
20260901014011 26 198 0.0 0.0 0.00 0.00 0.00 93 1013.4
20260901013511 26 198 0.0 0.0 0.00 0.00 0.00 92 1013.4
20260901013011 26 198 0.0 0.0 0.00 0.00 0.00 92 1013.4
20260901012011 26 198 0.0 0.0 0.00 0.00 0.00 92 1013.3
20260901011011 26 198 0.0 0.0 0.00 0.00 0.00 91 1013.2
20260901010510 27 199 0.0 0.0 0.00 0.00 0.00 90 1013.2
20260901005511 27 198 0.0 1.6 0.00 0.00 0.00 90 1012.9
20260901005012 27 198 0.0 1.6 0.00 0.00 0.00 90 1012.9
20260901004510 27 198 0.0 0.0 0.00 0.00 0.00 89 1012.9
20260901004012 27 198 0.0 0.0 0.00 0.00 0.00 89 1012.7
20260901003511 27 198 0.0 0.0 0.00 0.00 0.00 89 1012.7
20260901003011 27 198 0.0 0.0 0.00 0.00 0.00 88 1012.7
20260901002511 27 198 0.0 0.0 0.00 0.00 0.00 88 1012.5
20260901002011 27 198 0.0 0.0 0.00 0.00 0.00 87 1012.5
20260901001513 27 198 0.0 0.0 0.00 0.00 0.00 87 1012.5
20260901000510 27 198 0.0 0.0 0.00 0.00 0.00 86 1012.6
20260901000012 27 198 0.0 0.0 0.00 0.00 0.00 86 1012.6
20260831235511 27 198 0.0 0.0 0.00 0.00 0.00 86 1012.6
20260831235011 28 198 0.0 0.0 0.00 0.00 0.00 84 1012.6
20260831234511 28 198 0.0 0.0 0.00 0.00 0.00 84 1012.6
20260831234012 28 198 0.0 0.0 0.00 0.00 0.00 83 1012.6
20260831233511 28 198 0.0 4.8 0.00 0.00 0.00 83 1012.6
20260831233010 28 198 0.0 4.8 0.00 0.00 0.00 83 1012.6
20260831232510 28 198 1.6 4.8 0.00 0.00 0.00 83 1012.6
20260831232010 28 198 3.2 3.2 0.00 0.00 0.00 82 1012.6
20260831231511 28 198 0.0 0.0 0.00 0.00 0.00 81 1012.6
20260831231011 28 198 0.0 0.0 0.00 0.00 0.00 82 1012.8
20260831230511 28 198 0.0 0.0 0.00 0.00 0.00 81 1012.8
20260831230010 28 198 0.0 1.6 0.00 0.00 0.00 79 1012.8
20260831225510 28 198 0.0 1.6 0.00 0.00 0.00 78 1012.9
20260831225011 28 198 0.0 0.0 0.00 0.00 0.00 76 1012.9
20260831224511 29 198 0.0 0.0 0.00 0.00 0.00 75 1012.9
20260831223512 30 198 0.0 0.0 0.00 0.00 0.00 74 1012.9
20260831223011 30 198 0.0 0.0 0.00 0.00 0.00 73 1012.9
20260831222510 30 198 0.0 0.0 0.00 0.00 0.00 72 1013.0
20260831222010 30 198 0.0 0.0 0.00 0.00 0.00 71 1013.0
20260831221510 30 198 0.0 0.0 0.00 0.00 0.00 69 1013.0
20260831221010 30 198 0.0 0.0 0.00 0.00 0.00 69 1013.0
20260831220510 30 198 0.0 0.0 0.00 0.00 0.00 67 1013.0
20260831220011 30 198 0.0 0.0 0.00 0.00 0.00 70 1013.0
20260831215012 30 198 0.0 0.0 0.00 0.00 0.00 70 1013.2
20260831214511 30 198 0.0 0.0 0.00 0.00 0.00 67 1013.2
20260831214010 30 198 0.0 0.0 0.00 0.00 0.00 66 1013.4
20260831213510 30 198 0.0 4.8 0.00 0.00 0.00 63 1013.4
20260831213010 31 198 0.0 4.8 0.00 0.00 0.00 62 1013.4
20260831212010 31 198 0.0 9.7 0.00 0.00 0.00 60 1013.3